TimeEST,TemperatureF,Dew PointF,Humidity,Sea Level PressureIn,VisibilityMPH,Wind Direction,Wind SpeedMPH,Gust SpeedMPH,PrecipitationIn,Events,Conditions,WindDirDegrees,DateUTC
12:15 AM,30.2,21.2,69,29.67,10.0,North,12.7,-,N/A,,Overcast,350,2013-03-03 05:15:00
12:35 AM,30.2,21.2,69,29.67,10.0,North,11.5,-,N/A,,Overcast,350,2013-03-03 05:35:00
12:55 AM,28.4,19.4,69,29.67,10.0,North,8.1,-,N/A,,Overcast,360,2013-03-03 05:55:00
1:15 AM,28.4,21.2,74,29.67,10.0,NNW,10.4,-,N/A,,Overcast,340,2013-03-03 06:15:00
1:35 AM,28.4,21.2,74,29.66,10.0,North,9.2,-,N/A,,Overcast,350,2013-03-03 06:35:00
1:55 AM,28.4,19.4,69,29.66,10.0,NNW,9.2,-,N/A,,Overcast,340,2013-03-03 06:55:00
2:35 AM,28.4,19.4,69,29.65,10.0,North,6.9,-,N/A,,Overcast,360,2013-03-03 07:35:00
2:55 AM,28.4,19.4,69,29.65,10.0,North,8.1,-,N/A,,Overcast,360,2013-03-03 07:55:00
3:15 AM,28.4,19.4,69,29.65,10.0,North,10.4,-,N/A,,Overcast,360,2013-03-03 08:15:00
3:35 AM,28.4,19.4,69,29.65,10.0,North,10.4,-,N/A,,Overcast,10,2013-03-03 08:35:00
3:55 AM,28.4,19.4,69,29.65,10.0,North,10.4,-,N/A,,Overcast,350,2013-03-03 08:55:00
4:15 AM,28.4,19.4,69,29.65,3.0,North,5.8,-,N/A,,Overcast,360,2013-03-03 09:15:00
4:35 AM,28.4,19.4,69,29.65,4.0,North,5.8,-,N/A,,Overcast,350,2013-03-03 09:35:00
4:55 AM,28.4,21.2,74,29.65,4.0,North,8.1,-,N/A,,Overcast,350,2013-03-03 09:55:00
5:15 AM,28.4,21.2,74,29.65,8.0,North,5.8,-,N/A,,Overcast,350,2013-03-03 10:15:00
5:35 AM,26.6,21.2,80,29.65,7.0,NNW,5.8,-,N/A,,Overcast,340,2013-03-03 10:35:00
5:55 AM,26.6,21.2,80,29.65,10.0,NNW,4.6,-,N/A,,Overcast,340,2013-03-03 10:55:00
6:15 AM,26.6,21.2,80,29.66,7.0,NNW,4.6,-,N/A,,Mostly Cloudy,340,2013-03-03 11:15:00
6:35 AM,26.6,21.2,80,29.66,10.0,NNW,6.9,-,N/A,,Mostly Cloudy,340,2013-03-03 11:35:00
6:55 AM,26.6,21.2,80,29.66,10.0,NNW,6.9,-,N/A,,Overcast,330,2013-03-03 11:55:00
7:15 AM,26.6,21.2,80,29.67,10.0,NNW,5.8,-,N/A,,Overcast,340,2013-03-03 12:15:00
7:35 AM,26.6,21.2,80,29.67,8.0,NNW,4.6,-,N/A,,Overcast,340,2013-03-03 12:35:00
7:55 AM,26.6,21.2,80,29.67,4.0,NNW,5.8,-,N/A,,Overcast,330,2013-03-03 12:55:00
8:15 AM,26.6,21.2,80,29.67,2.0,North,8.1,-,N/A,,Overcast,350,2013-03-03 13:15:00
8:35 AM,26.6,21.2,80,29.67,1.8,NNW,6.9,-,N/A,,Overcast,330,2013-03-03 13:35:00
8:55 AM,26.6,21.2,80,29.66,1.8,NNW,5.8,-,N/A,,Overcast,340,2013-03-03 13:55:00
9:15 AM,26.6,21.2,80,29.66,1.5,North,5.8,-,N/A,,Overcast,350,2013-03-03 14:15:00
9:35 AM,26.6,21.2,80,29.66,1.2,North,5.8,-,N/A,,Overcast,350,2013-03-03 14:35:00
10:15 AM,28.4,21.2,74,29.65,2.0,North,6.9,-,N/A,,Overcast,350,2013-03-03 15:15:00
10:35 AM,28.4,23.0,80,29.64,2.5,North,5.8,-,N/A,,Overcast,350,2013-03-03 15:35:00
10:55 AM,30.2,23.0,75,29.64,5.0,North,5.8,-,N/A,,Overcast,360,2013-03-03 15:55:00
11:15 AM,30.2,23.0,75,29.64,7.0,North,10.4,-,N/A,,Overcast,360,2013-03-03 16:15:00
11:55 AM,32.0,23.0,69,29.63,9.0,North,10.4,-,N/A,,Mostly Cloudy,350,2013-03-03 16:55:00
12:35 PM,32.0,24.8,75,29.62,7.0,North,6.9,-,N/A,,Overcast,350,2013-03-03 17:35:00
12:55 PM,33.8,24.8,70,29.61,10.0,NNW,6.9,-,N/A,,Overcast,330,2013-03-03 17:55:00
1:15 PM,33.8,24.8,70,29.60,10.0,North,12.7,-,N/A,,Overcast,350,2013-03-03 18:15:00
1:35 PM,33.8,24.8,70,29.60,10.0,NNW,8.1,-,N/A,,Overcast,340,2013-03-03 18:35:00
1:55 PM,33.8,24.8,70,29.60,10.0,NW,5.8,-,N/A,,Overcast,320,2013-03-03 18:55:00
2:15 PM,33.8,24.8,70,29.60,10.0,North,6.9,-,N/A,,Overcast,350,2013-03-03 19:15:00
3:15 PM,33.8,24.8,70,29.60,10.0,NW,9.2,-,N/A,,Overcast,320,2013-03-03 20:15:00
3:35 PM,33.8,24.8,70,29.60,10.0,NW,6.9,-,N/A,,Overcast,320,2013-03-03 20:35:00
3:55 PM,35.6,24.8,65,29.60,10.0,NW,8.1,-,N/A,,Overcast,320,2013-03-03 20:55:00
4:15 PM,33.8,23.0,65,29.61,10.0,NNW,9.2,-,N/A,,Overcast,340,2013-03-03 21:15:00
4:55 PM,33.8,23.0,65,29.61,10.0,NW,6.9,-,N/A,,Overcast,320,2013-03-03 21:55:00
5:15 PM,33.8,23.0,65,29.61,10.0,NW,10.4,-,N/A,,Overcast,320,2013-03-03 22:15:00
6:15 PM,33.8,21.2,60,29.63,10.0,NNW,6.9,-,N/A,,Overcast,330,2013-03-03 23:15:00
6:35 PM,33.8,21.2,60,29.63,10.0,North,9.2,-,N/A,,Overcast,360,2013-03-03 23:35:00
6:55 PM,32.0,21.2,64,29.64,10.0,North,8.1,-,N/A,,Overcast,350,2013-03-03 23:55:00
7:35 PM,32.0,23.0,69,29.64,10.0,North,9.2,-,N/A,,Overcast,350,2013-03-04 00:35:00
7:55 PM,32.0,21.2,64,29.64,10.0,NNW,6.9,-,N/A,,Overcast,340,2013-03-04 00:55:00
8:35 PM,32.0,21.2,64,29.65,10.0,North,8.1,-,N/A,,Overcast,350,2013-03-04 01:35:00
8:55 PM,32.0,21.2,64,29.65,10.0,NNW,9.2,-,N/A,,Overcast,340,2013-03-04 01:55:00
9:35 PM,32.0,21.2,64,29.65,10.0,NNW,9.2,-,N/A,,Overcast,340,2013-03-04 02:35:00
9:55 PM,32.0,21.2,64,29.64,10.0,NNW,5.8,-,N/A,,Overcast,340,2013-03-04 02:55:00
10:15 PM,30.2,21.2,69,29.64,10.0,NNW,5.8,-,N/A,,Overcast,340,2013-03-04 03:15:00
10:35 PM,30.2,21.2,69,29.64,10.0,NNW,4.6,-,N/A,,Overcast,330,2013-03-04 03:35:00
11:15 PM,30.2,23.0,75,29.64,10.0,NNW,5.8,-,N/A,,Overcast,340,2013-03-04 04:15:00
11:35 PM,30.2,21.2,69,29.64,10.0,NNW,5.8,-,N/A,,Overcast,340,2013-03-04 04:35:00
11:55 PM,30.2,21.2,69,29.64,10.0,NNW,4.6,-,N/A,,Overcast,330,2013-03-04 04:55:00